QPF
0.00 0.00 0.00 0.00 0.00 0.00 0.00 0.00 0.00 0.00 0.00 0.00 0.00 0.00 0.00 0.00 0.00 0.00 0.00 0.00 0.00 0.00 0.00 0.00 0.00 0.00 0.00 0.00 0.00 0.00 0.00 0.02 0.05 0.04 0.05 0.02 0.01 0.00 0.00 0.00 0.00 0.00 0.00
0.00 0.00 0.00 0.00 0.00 0.00 0.00 0.00 0.00 0.00 0.00 0.00 0.00 0.00 0.00 0.00 0.00 0.00 0.00 0.00 0.00 0.00 0.00 0.00 0.00 0.00 0.00 0.00 0.00 0.00 0.00 0.00 0.02 0.02 0.06 0.06 0.02 0.00 0.00 0.00 0.00 0.00 0.00
0.00 0.00 0.00 0.00 0.00 0.00 0.00 0.00 0.00 0.00 0.00 0.00 0.00 0.00 0.00 0.00 0.00 0.00 0.00 0.00 0.00 0.00 0.00 0.00 0.00 0.00 0.00 0.00 0.00 0.00 0.00 0.00 0.00 0.01 0.01 0.03 0.01 0.01 0.00 0.00 0.00 0.00 0.00
0.00 0.00 0.00 0.00 0.00 0.00 0.00 0.00 0.00 0.00 0.00 0.00 0.00 0.00 0.00 0.00 0.00 0.00 0.00 0.00 0.00 0.00 0.00 0.00 0.00 0.00 0.00 0.00 0.00 0.00 0.00 0.00 0.00 0.00 0.01 0.00 0.00 0.02 0.02 0.00 0.00 0.00 0.00
0.00 0.00 0.00 0.00 0.00 0.00 0.00 0.00 0.00 0.00 0.00 0.00 0.00 0.00 0.00 0.00 0.00 0.00 0.00 0.00 0.00 0.00 0.00 0.00 0.00 0.00 0.00 0.00 0.00 0.00 0.00 0.00 0.00 0.00 0.02 0.01 0.00 0.00 0.02 0.02 0.00 0.00 0.00
0.00 0.00 0.00 0.00 0.00 0.00 0.00 0.00 0.00 0.00 0.00 0.00 0.00 0.00 0.00 0.00 0.00 0.00 0.01 0.00 0.00 0.00 0.00 0.00 0.00 0.00 0.00 0.00 0.00 0.00 0.00 0.00 0.00 0.00 0.01 0.03 0.01 0.00 0.00 0.01 0.00 0.00 0.00
0.00 0.00 0.00 0.00 0.00 0.00 0.00 0.00 0.00 0.00 0.00 0.00 0.00 0.00 0.00 0.00 0.00 0.01 0.01 0.01 0.01 0.01 0.01 0.00 0.00 0.00 0.00 0.00 0.00 0.00 0.00 0.00 0.01 0.00 0.00 0.01 0.03 0.01 0.00 0.00 0.00 0.00 0.00
0.00 0.00 0.00 0.00 0.00 0.00 0.00 0.00 0.00 0.00 0.00 0.00 0.00 0.00 0.00 0.00 0.00 0.00 0.01 0.02 0.02 0.00 0.00 0.00 0.00 0.00 0.00 0.00 0.00 0.00 0.00 0.00 0.00 0.00 0.00 0.00 0.01 0.03 0.01 0.00 0.01 0.00 0.00
0.00 0.00 0.00 0.00 0.00 0.00 0.00 0.00 0.00 0.00 0.00 0.00 0.00 0.00 0.00 0.00 0.00 0.00 0.01 0.03 0.02 0.01 0.00 0.00 0.00 0.00 0.00 0.01 0.00 0.00 0.00 0.00 0.00 0.00 0.00 0.01 0.02 0.06 0.04 0.02 0.05 0.03 0.00
0.00 0.00 0.00 0.00 0.00 0.00 0.00 0.00 0.00 0.00 0.00 0.00 0.00 0.00 0.00 0.00 0.00 0.00 0.01 0.04 0.02 0.01 0.01 0.00 0.01 0.00 0.01 0.01 0.01 0.00 0.00 0.00 0.00 0.00 0.00 0.00 0.00 0.03 0.05 0.02 0.04 0.02 0.01
0.00 0.00 0.00 0.00 0.00 0.00 0.00 0.00 0.00 0.00 0.00 0.00 0.00 0.00 0.00 0.00 0.00 0.00 0.00 0.03 0.03 0.02 0.01 0.01 0.00 0.00 0.01 0.02 0.03 0.01 0.00 0.00 0.00 0.00 0.00 0.00 0.00 0.00 0.02 0.01 0.03 0.03 0.01
0.00 0.00 0.00 0.00 0.00 0.00 0.00 0.00 0.00 0.00 0.01 0.00 0.00 0.00 0.00 0.00 0.00 0.00 0.00 0.01 0.02 0.04 0.03 0.02 0.01 0.02 0.01 0.01 0.02 0.02 0.02 0.01 0.01 0.00 0.00 0.00 0.00 0.01 0.01 0.03 0.03 0.04 0.04
0.00 0.00 0.00 0.00 0.00 0.00 0.00 0.00 0.01 0.00 0.00 0.00 0.00 0.00 0.00 0.00 0.00 0.00 0.00 0.01 0.01 0.02 0.01 0.02 0.03 0.03 0.02 0.01 0.01 0.01 0.02 0.02 0.01 0.01 0.00 0.00 0.01 0.01 0.02 0.06 0.08 0.04 0.03
0.00 0.00 0.00 0.00 0.00 0.00 0.00 0.00 0.00 0.00 0.01 0.00 0.00 0.01 0.00 0.00 0.00 0.00 0.00 0.00 0.01 0.01 0.01 0.01 0.01 0.01 0.01 0.01 0.01 0.00 0.00 0.00 0.01 0.01 0.00 0.00 0.01 0.03 0.04 0.04 0.05 0.05 0.04
0.00 0.00 0.00 0.00 0.00 0.00 0.00 0.00 0.03 0.02 0.03 0.08 0.04 0.03 0.02 0.02 0.00 0.02 0.06 0.08 0.05 0.05 0.03 0.01 0.01 0.01 0.01 0.00 0.00 0.00 0.00 0.00 0.02 0.01 0.00 0.01 0.01 0.02 0.06 0.06 0.04 0.03 0.02
0.00 0.00 0.00 0.00 0.00 0.00 0.01 0.00 0.01 0.03 0.01 0.02 0.03 0.06 0.05 0.03 0.04 0.06 0.07 0.06 0.04 0.03 0.03 0.02 0.01 0.02 0.02 0.01 0.00 0.00 0.00 0.00 0.00 0.00 0.00 0.00 0.01 0.01 0.02 0.04 0.05 0.02 0.04
0.00 0.01 0.01 0.00 0.01 0.01 0.01 0.01 0.01 0.00 0.01 0.02 0.01 0.01 0.03 0.05 0.05 0.05 0.06 0.04 0.03 0.03 0.03 0.02 0.01 0.01 0.02 0.02 0.02 0.01 0.00 0.00 0.00 0.00 0.01 0.01 0.02 0.03 0.05 0.04 0.06 0.09 0.12
0.00 0.00 0.01 0.01 0.01 0.01 0.01 0.02 0.02 0.01 0.01 0.00 0.00 0.01 0.02 0.04 0.04 0.06 0.05 0.03 0.03 0.03 0.04 0.04 0.04 0.02 0.02 0.02 0.03 0.04 0.03 0.02 0.02 0.02 0.03 0.04 0.03 0.04 0.06 0.07 0.06 0.09 0.10
0.00 0.01 0.01 0.00 0.00 0.02 0.02 0.01 0.01 0.01 0.01 0.01 0.00 0.00 0.01 0.02 0.03 0.03 0.03 0.05 0.05 0.06 0.07 0.07 0.07 0.05 0.04 0.03 0.03 0.07 0.10 0.08 0.05 0.05 0.08 0.08 0.06 0.07 0.09 0.09 0.10 0.08 0.08
0.00 0.00 0.00 0.00 0.00 0.00 0.00 0.01 0.01 0.01 0.01 0.01 0.02 0.02 0.02 0.03 0.02 0.02 0.03 0.06 0.08 0.08 0.10 0.10 0.09 0.07 0.05 0.03 0.03 0.06 0.12 0.17 0.13 0.09 0.10 0.10 0.08 0.08 0.07 0.07 0.06 0.05 0.04
0.00 0.00 0.00 0.00 0.00 0.00 0.00 0.01 0.01 0.01 0.02 0.02 0.03 0.03 0.06 0.05 0.04 0.04 0.05 0.06 0.08 0.11 0.15 0.13 0.10 0.08 0.06 0.06 0.06 0.07 0.08 0.12 0.11 0.11 0.10 0.08 0.05 0.06 0.04 0.02 0.02 0.01 0.00
0.00 0.00 0.00 0.00 0.00 0.01 0.02 0.02 0.01 0.01 0.02 0.03 0.02 0.03 0.03 0.03 0.03 0.03 0.04 0.05 0.07 0.10 0.14 0.14 0.10 0.07 0.09 0.09 0.09 0.08 0.08 0.08 0.09 0.07 0.04 0.02 0.02 0.01 0.01 0.01 0.00 0.00 0.00
0.00 0.00 0.00 0.00 0.00 0.01 0.00 0.00 0.01 0.01 0.02 0.03 0.04 0.02 0.02 0.03 0.04 0.04 0.04 0.05 0.05 0.06 0.10 0.11 0.10 0.07 0.06 0.07 0.08 0.07 0.07 0.06 0.05 0.02 0.01 0.00 0.00 0.00 0.00 0.00 0.00 0.00 0.00
0.00 0.00 0.00 0.00 0.00 0.00 0.01 0.01 0.01 0.01 0.01 0.03 0.03 0.03 0.03 0.04 0.04 0.05 0.05 0.06 0.05 0.05 0.06 0.08 0.10 0.07 0.05 0.06 0.08 0.11 0.10 0.07 0.05 0.03 0.00 0.00 0.00 0.00 0.00 0.00 0.00 0.00 0.00
0.00 0.00 0.00 0.00 0.01 0.00 0.01 0.00 0.01 0.01 0.02 0.03 0.03 0.03 0.04 0.04 0.04 0.05 0.06 0.08 0.07 0.05 0.05 0.06 0.08 0.08 0.06 0.04 0.04 0.04 0.03 0.01 0.00 0.00 0.00 0.00 0.00 0.00 0.00 0.00 0.00 0.00 0.00
0.00 0.00 0.00 0.00 0.01 0.01 0.01 0.01 0.01 0.02 0.03 0.03 0.04 0.04 0.04 0.04 0.04 0.05 0.05 0.07 0.08 0.08 0.05 0.03 0.01 0.01 0.01 0.00 0.00 0.00 0.00 0.00 0.00 0.00 0.00 0.00 0.00 0.00 0.00 0.00 0.00 0.00 0.00
MSLP
1024.85 1024.49 1024.12 1023.62 1023.15 1022.68 1022.19 1021.66 1021.16 1020.48 1019.82 1019.22 1018.56 1017.81 1017.32 1016.82 1016.42 1016.08 1015.60 1015.28 1014.97 1014.78 1014.55 1014.20 1013.82 1013.48 1013.10 1012.75 1012.43 1012.27 1012.10 1011.66 1010.62 1010.10 1009.95 1009.99 1010.12 1010.08 1010.07 1010.06 1010.19 1010.44 1010.26
1024.68 1024.31 1023.89 1023.41 1022.98 1022.49 1021.89 1021.27 1020.73 1020.11 1019.45 1018.82 1018.16 1017.52 1016.91 1016.30 1015.90 1015.67 1015.33 1014.91 1014.45 1014.24 1013.99 1013.66 1013.28 1013.05 1012.83 1012.43 1012.02 1011.74 1011.68 1011.35 1011.16 1010.24 1009.97 1009.83 1009.98 1009.89 1009.98 1010.32 1010.74 1010.44 1010.28
1024.48 1023.94 1023.43 1022.97 1022.62 1022.10 1021.55 1020.82 1020.26 1019.69 1019.15 1018.48 1017.88 1017.18 1016.46 1015.83 1015.38 1015.10 1014.75 1014.34 1013.90 1013.47 1013.28 1013.06 1012.71 1012.55 1012.38 1012.06 1011.65 1011.37 1011.30 1011.32 1011.09 1010.54 1010.11 1009.92 1010.20 1010.17 1010.65 1010.60 1010.65 1010.70 1010.46
1024.22 1023.78 1023.27 1022.70 1022.19 1021.63 1021.06 1020.45 1019.86 1019.25 1018.69 1018.15 1017.49 1016.78 1016.11 1015.45 1014.81 1014.40 1014.06 1013.57 1013.21 1012.87 1012.56 1012.29 1012.01 1011.81 1011.64 1011.45 1011.22 1010.98 1010.92 1011.03 1010.88 1010.40 1010.17 1009.90 1010.10 1010.06 1010.34 1010.61 1011.07 1011.16 1011.24
1023.94 1023.49 1022.98 1022.44 1021.72 1021.10 1020.49 1019.99 1019.44 1018.78 1018.08 1017.60 1017.03 1016.29 1015.57 1014.98 1014.24 1013.65 1013.26 1012.87 1012.50 1012.14 1011.88 1011.57 1011.16 1010.86 1010.68 1010.61 1010.50 1010.32 1010.32 1010.46 1010.48 1010.23 1009.81 1009.44 1009.53 1010.04 1010.19 1010.62 1011.15 1011.53 1011.84
1023.75 1023.16 1022.60 1022.02 1021.23 1020.57 1020.04 1019.43 1018.86 1018.19 1017.48 1016.89 1016.37 1015.82 1014.96 1014.26 1013.62 1012.85 1012.28 1011.96 1011.54 1011.17 1010.89 1010.67 1010.37 1010.08 1009.86 1009.82 1009.75 1009.57 1009.59 1009.78 1009.85 1009.80 1009.58 1009.28 1009.14 1009.11 1009.70 1010.21 1011.03 1011.60 1012.23
1023.52 1022.69 1022.04 1021.38 1020.75 1020.14 1019.52 1018.86 1018.18 1017.60 1016.88 1016.18 1015.54 1015.07 1014.26 1013.52 1012.89 1012.10 1011.42 1010.97 1010.55 1010.15 1009.86 1009.71 1009.51 1009.27 1009.09 1008.97 1008.92 1008.79 1008.75 1008.86 1008.98 1009.22 1009.12 1009.10 1008.99 1008.98 1009.33 1009.88 1010.45 1011.02 1011.73
1023.31 1022.60 1021.78 1020.98 1020.32 1019.71 1018.97 1018.22 1017.58 1017.09 1016.33 1015.50 1014.65 1014.12 1013.44 1012.55 1011.83 1011.15 1010.57 1010.19 1009.72 1009.25 1008.94 1008.76 1008.59 1008.46 1008.39 1008.29 1008.18 1008.22 1008.26 1008.25 1008.31 1008.40 1008.45 1008.55 1008.64 1008.73 1009.00 1009.00 1009.83 1011.33 1012.12
1023.08 1022.27 1021.44 1020.80 1019.82 1019.25 1018.53 1017.72 1017.05 1016.38 1015.47 1014.71 1013.85 1013.01 1012.42 1011.48 1010.93 1010.22 1009.67 1009.27 1008.71 1008.21 1007.87 1007.67 1007.57 1007.48 1007.46 1007.39 1007.42 1007.51 1007.64 1007.69 1007.77 1007.86 1007.95 1007.94 1008.00 1008.25 1008.61 1009.20 1009.95 1010.76 1012.14
1022.91 1022.08 1021.22 1020.45 1019.52 1018.82 1018.14 1017.29 1016.39 1015.66 1014.62 1013.75 1012.83 1012.21 1011.48 1010.54 1009.94 1009.33 1008.78 1008.35 1007.66 1007.21 1006.85 1006.52 1006.36 1006.30 1006.38 1006.39 1006.47 1006.71 1006.87 1007.02 1007.23 1007.31 1007.39 1007.38 1007.55 1007.71 1008.11 1008.15 1008.80 1009.46 1010.94
1022.57 1021.78 1020.79 1019.99 1019.14 1018.33 1017.40 1016.59 1015.73 1014.70 1013.77 1012.97 1012.12 1011.28 1010.49 1009.81 1008.97 1008.23 1007.57 1007.25 1006.74 1006.27 1005.85 1005.46 1005.25 1005.19 1005.13 1005.06 1005.24 1005.61 1005.85 1006.26 1006.41 1006.61 1006.79 1006.87 1007.06 1007.09 1007.26 1007.63 1008.00 1008.31 1009.66
1022.25 1021.35 1020.32 1019.49 1018.62 1017.63 1016.76 1015.72 1014.87 1013.95 1012.97 1012.09 1011.29 1010.25 1009.42 1008.70 1008.03 1007.25 1006.64 1006.06 1005.84 1005.38 1004.86 1004.46 1004.16 1003.95 1003.97 1004.02 1004.18 1004.36 1004.73 1005.17 1005.57 1005.87 1006.13 1006.29 1006.50 1006.65 1006.71 1007.24 1007.87 1008.36 1008.84
1022.06 1020.98 1019.77 1018.85 1018.07 1017.05 1015.94 1014.94 1013.99 1013.12 1012.30 1011.34 1010.47 1009.38 1008.31 1007.62 1006.91 1006.24 1005.56 1005.05 1004.67 1004.21 1003.85 1003.51 1003.09 1002.86 1002.91 1003.00 1003.17 1003.47 1003.75 1004.09 1004.58 1004.99 1005.39 1005.82 1006.18 1006.38 1006.97 1007.61 1008.35 1008.85 1009.51
1021.76 1020.56 1019.26 1018.39 1017.20 1016.22 1015.28 1014.37 1013.35 1012.39 1011.42 1010.42 1009.48 1008.41 1007.45 1006.73 1005.89 1005.25 1004.70 1004.06 1003.39 1002.93 1002.60 1002.21 1002.02 1001.97 1002.05 1002.14 1002.38 1002.69 1003.04 1003.37 1003.75 1004.14 1004.77 1005.56 1006.15 1006.55 1007.04 1007.26 1008.27 1009.29 1010.22
1021.39 1020.21 1018.86 1017.89 1016.66 1015.47 1014.55 1013.68 1012.64 1011.59 1010.79 1009.51 1008.52 1007.75 1006.84 1005.72 1004.81 1004.28 1003.55 1002.65 1001.71 1001.05 1000.97 1001.01 1001.05 1001.21 1001.32 1001.48 1001.74 1001.97 1002.34 1002.77 1003.07 1003.62 1004.50 1005.40 1006.15 1006.59 1007.14 1007.48 1008.14 1009.00 1010.00
1021.10 1019.69 1018.54 1017.24 1016.11 1015.15 1013.99 1012.48 1011.92 1010.88 1009.66 1008.74 1007.78 1006.91 1005.83 1004.92 1003.98 1003.14 1002.26 1001.47 1001.03 1000.54 1000.13 1000.12 1000.19 1000.36 1000.55 1000.68 1000.72 1000.94 1001.42 1001.92 1002.52 1003.25 1004.18 1004.98 1005.86 1006.55 1007.28 1007.90 1008.45 1009.14 1010.10
1020.89 1019.44 1018.00 1016.96 1015.94 1014.97 1013.88 1012.74 1010.96 1009.15 1008.90 1007.81 1006.87 1005.86 1004.87 1003.89 1002.85 1001.96 1001.05 1000.52 1000.18 999.97 999.87 999.85 999.90 999.96 1000.00 999.97 999.91 1000.04 1000.42 1001.05 1001.93 1002.91 1003.84 1004.73 1005.64 1006.60 1007.38 1008.01 1008.65 1009.51 1010.75
1020.39 1019.13 1017.88 1016.90 1015.90 1014.91 1013.89 1012.79 1011.66 1010.28 1008.60 1006.81 1005.45 1005.02 1003.93 1002.94 1002.02 1001.12 1000.65 1000.08 999.80 999.59 999.62 999.53 999.50 999.58 999.70 999.71 999.70 999.68 999.85 1000.53 1001.45 1002.48 1003.53 1004.49 1005.47 1006.33 1007.33 1008.16 1008.90 1009.71 1010.70
1019.85 1018.75 1017.78 1016.74 1015.85 1014.90 1013.86 1012.63 1011.41 1010.09 1008.76 1007.26 1005.64 1004.11 1003.38 1002.52 1001.56 1001.07 1000.55 1000.22 999.85 999.63 999.55 999.50 999.45 999.50 999.58 999.65 999.72 999.83 1000.01 1000.53 1001.35 1002.35 1003.43 1004.42 1005.43 1006.26 1007.40 1008.29 1009.16 1010.04 1010.92
1019.69 1018.86 1017.67 1016.74 1015.82 1014.77 1013.67 1012.42 1010.99 1009.73 1008.50 1007.19 1005.84 1004.60 1003.33 1002.29 1001.81 1001.35 1000.91 1000.50 1000.13 999.82 999.71 999.63 999.57 999.52 999.57 999.70 999.90 1000.10 1000.43 1000.96 1001.70 1002.54 1003.55 1004.56 1005.55 1006.40 1007.34 1008.32 1009.31 1010.31 1011.60
1019.96 1019.01 1017.84 1016.95 1015.97 1014.91 1013.70 1012.24 1011.13 1009.82 1008.51 1007.21 1005.85 1004.58 1003.59 1003.08 1002.47 1001.94 1001.42 1000.91 1000.53 1000.23 1000.03 999.94 999.87 999.86 999.85 1000.01 1000.17 1000.49 1000.95 1001.54 1002.21 1003.03 1003.91 1004.89 1005.83 1006.83 1007.81 1008.82 1009.82 1011.00 1012.18
1020.34 1019.37 1018.32 1017.31 1016.17 1014.91 1013.53 1012.50 1011.21 1009.83 1008.53 1007.16 1005.84 1004.95 1004.17 1003.67 1003.13 1002.62 1002.12 1001.65 1001.24 1000.82 1000.53 1000.39 1000.36 1000.38 1000.37 1000.45 1000.66 1001.01 1001.53 1002.10 1002.82 1003.53 1004.42 1005.38 1006.33 1007.39 1008.42 1009.47 1010.61 1011.70 1012.58
1020.71 1019.74 1018.66 1017.54 1016.43 1015.02 1013.84 1012.59 1011.31 1009.93 1008.60 1007.41 1006.31 1005.61 1004.91 1004.41 1003.91 1003.38 1002.93 1002.52 1002.09 1001.67 1001.32 1001.19 1001.16 1001.17 1001.21 1001.34 1001.58 1001.86 1002.21 1002.81 1003.36 1003.94 1004.84 1005.95 1006.99 1008.01 1009.04 1009.97 1010.94 1012.07 1013.16
1021.09 1020.20 1019.16 1017.97 1016.73 1015.44 1014.34 1012.88 1011.59 1010.18 1008.95 1007.72 1006.97 1006.34 1005.77 1005.25 1004.81 1004.35 1003.87 1003.42 1003.03 1002.72 1002.43 1002.18 1002.08 1002.08 1002.16 1002.28 1002.50 1002.79 1003.16 1003.61 1004.18 1004.91 1005.53 1006.46 1007.55 1008.72 1009.69 1010.71 1011.75 1012.78 1013.69
1021.57 1020.67 1019.59 1018.46 1017.18 1016.07 1014.69 1013.36 1011.94 1010.63 1009.43 1008.49 1007.82 1007.22 1006.71 1006.23 1005.80 1005.36 1004.93 1004.51 1004.14 1003.76 1003.62 1003.43 1003.29 1003.20 1003.22 1003.34 1003.56 1003.91 1004.32 1004.74 1005.28 1005.96 1006.65 1007.43 1008.39 1009.41 1010.35 1011.33 1012.37 1013.39 1014.28
1022.08 1021.16 1020.14 1018.90 1017.73 1016.58 1015.35 1014.04 1012.54 1011.30 1010.17 1009.39 1008.70 1008.17 1007.74 1007.30 1006.91 1006.46 1006.06 1005.69 1005.38 1005.08 1004.81 1004.69 1004.66 1004.55 1004.53 1004.65 1004.82 1005.05 1005.45 1005.93 1006.50 1007.01 1007.62 1008.37 1009.20 1010.24 1011.08 1012.04 1013.03 1014.07 1015.01
Thickness
5362 5351 5340 5333 5327 5322 5317 5314 5312 5313 5314 5316 5318 5322 5323 5324 5325 5326 5328 5330 5333 5336 5340 5348 5357 5366 5376 5385 5396 5404 5413 5425 5446 5461 5469 5477 5484 5493 5502 5510 5517 5522 5529
5349 5338 5330 5323 5318 5313 5310 5308 5306 5307 5308 5310 5312 5315 5318 5321 5322 5322 5323 5325 5330 5332 5335 5342 5351 5358 5366 5375 5386 5396 5405 5416 5426 5448 5459 5466 5474 5484 5492 5497 5502 5509 5517
5335 5328 5321 5315 5309 5306 5303 5302 5301 5301 5301 5303 5305 5309 5313 5316 5318 5318 5320 5322 5327 5331 5333 5337 5344 5350 5358 5366 5377 5387 5396 5404 5414 5431 5445 5452 5460 5469 5473 5482 5489 5496 5505
5323 5316 5311 5307 5303 5300 5297 5296 5295 5295 5295 5296 5298 5301 5304 5308 5311 5314 5316 5320 5323 5327 5331 5335 5340 5346 5353 5360 5369 5378 5386 5393 5403 5417 5430 5440 5449 5458 5465 5471 5476 5481 5487
5314 5307 5302 5298 5296 5293 5291 5288 5287 5287 5288 5287 5288 5292 5295 5298 5303 5307 5311 5314 5318 5322 5326 5331 5338 5344 5350 5356 5364 5372 5379 5385 5394 5406 5422 5433 5440 5446 5455 5459 5461 5466 5471
5304 5299 5294 5290 5288 5285 5280 5277 5275 5275 5275 5275 5276 5278 5284 5287 5292 5299 5305 5308 5313 5318 5322 5327 5333 5340 5346 5352 5358 5367 5374 5379 5387 5397 5408 5423 5434 5443 5446 5451 5450 5456 5461
5295 5290 5286 5281 5277 5273 5268 5264 5261 5258 5258 5259 5261 5264 5271 5275 5281 5288 5295 5302 5307 5313 5318 5323 5329 5336 5342 5349 5355 5362 5370 5377 5384 5391 5401 5411 5423 5431 5438 5442 5446 5451 5453
5285 5278 5273 5270 5265 5258 5253 5249 5244 5241 5241 5244 5248 5251 5257 5263 5271 5278 5285 5291 5298 5305 5311 5317 5324 5330 5337 5344 5351 5357 5364 5371 5379 5388 5398 5406 5413 5421 5429 5439 5440 5435 5438
5273 5267 5261 5254 5251 5243 5238 5234 5230 5228 5230 5232 5237 5243 5248 5254 5260 5268 5274 5280 5288 5296 5304 5311 5318 5325 5332 5340 5347 5354 5359 5366 5374 5382 5391 5400 5410 5418 5424 5428 5432 5436 5431
5261 5255 5248 5240 5235 5228 5222 5219 5219 5217 5222 5225 5231 5236 5241 5249 5254 5261 5267 5272 5282 5289 5296 5305 5313 5321 5328 5337 5345 5350 5357 5363 5369 5378 5387 5396 5404 5413 5420 5430 5433 5439 5430
5250 5243 5237 5227 5220 5214 5212 5209 5209 5212 5216 5220 5226 5232 5239 5246 5252 5259 5266 5270 5277 5285 5293 5301 5309 5317 5326 5337 5346 5351 5357 5359 5367 5374 5384 5393 5400 5410 5420 5427 5433 5440 5435
5241 5233 5226 5216 5209 5205 5203 5203 5204 5208 5214 5219 5225 5233 5241 5247 5253 5259 5265 5270 5273 5281 5291 5299 5307 5316 5324 5334 5344 5353 5357 5361 5366 5374 5382 5392 5401 5410 5418 5422 5425 5429 5432
5231 5223 5218 5210 5202 5198 5199 5200 5202 5208 5213 5220 5228 5236 5245 5251 5256 5262 5266 5271 5274 5279 5288 5297 5306 5316 5323 5332 5343 5350 5356 5364 5370 5376 5383 5389 5395 5403 5406 5410 5413 5417 5418
5221 5215 5211 5203 5201 5197 5196 5198 5203 5209 5216 5225 5233 5241 5249 5253 5260 5264 5268 5272 5278 5283 5289 5298 5306 5313 5322 5330 5338 5346 5354 5362 5370 5377 5380 5380 5386 5393 5399 5406 5407 5406 5406
5213 5207 5205 5200 5198 5199 5198 5201 5207 5216 5222 5231 5239 5244 5251 5259 5265 5268 5272 5278 5285 5292 5297 5301 5306 5311 5319 5326 5335 5343 5351 5359 5368 5374 5375 5377 5380 5386 5391 5398 5401 5402 5400
5207 5206 5202 5201 5200 5199 5202 5209 5213 5222 5231 5237 5244 5250 5259 5265 5270 5274 5280 5285 5288 5294 5300 5305 5311 5315 5321 5328 5337 5346 5353 5361 5367 5370 5372 5376 5379 5382 5385 5388 5392 5395 5394
5200 5202 5204 5202 5200 5200 5204 5210 5221 5235 5236 5244 5251 5259 5265 5271 5277 5283 5289 5292 5296 5300 5303 5303 5308 5314 5321 5330 5339 5348 5356 5362 5363 5367 5370 5373 5375 5376 5378 5382 5384 5385 5382
5200 5201 5202 5201 5202 5203 5206 5211 5218 5227 5238 5251 5262 5265 5272 5278 5284 5291 5294 5298 5300 5303 5305 5309 5313 5316 5319 5327 5336 5345 5355 5360 5365 5367 5369 5370 5372 5374 5374 5375 5378 5378 5377
5202 5203 5202 5203 5203 5206 5208 5215 5222 5230 5239 5249 5261 5272 5277 5283 5290 5294 5298 5301 5305 5309 5310 5314 5316 5318 5321 5325 5332 5341 5349 5357 5363 5366 5367 5368 5369 5370 5369 5369 5371 5372 5373
5200 5199 5202 5203 5204 5207 5212 5219 5227 5235 5243 5251 5261 5269 5278 5287 5291 5294 5299 5302 5306 5310 5312 5315 5319 5323 5325 5328 5333 5339 5347 5354 5359 5363 5365 5365 5365 5367 5367 5367 5367 5367 5363
5196 5197 5200 5200 5203 5207 5213 5222 5227 5235 5244 5253 5263 5273 5282 5283 5288 5293 5298 5303 5307 5310 5314 5318 5322 5326 5330 5334 5339 5344 5349 5353 5357 5359 5362 5362 5363 5362 5362 5361 5360 5356 5353
5190 5193 5195 5198 5202 5208 5217 5220 5227 5236 5245 5255 5266 5272 5278 5281 5286 5292 5297 5303 5308 5313 5317 5321 5325 5329 5334 5339 5344 5349 5353 5356 5357 5359 5360 5359 5358 5356 5355 5353 5351 5349 5348
5184 5187 5191 5195 5200 5209 5213 5220 5227 5236 5245 5254 5264 5268 5273 5278 5284 5290 5296 5302 5308 5314 5319 5322 5325 5330 5335 5339 5343 5347 5352 5355 5357 5360 5359 5357 5354 5352 5351 5349 5346 5342 5338
5179 5182 5186 5191 5197 5205 5208 5218 5225 5236 5244 5254 5259 5264 5268 5274 5279 5285 5292 5299 5306 5312 5317 5323 5326 5329 5333 5337 5341 5345 5349 5353 5354 5354 5355 5354 5351 5347 5344 5340 5336 5333 5331
5172 5175 5180 5185 5193 5197 5205 5213 5223 5232 5240 5248 5253 5258 5262 5267 5273 5279 5286 5293 5300 5307 5313 5318 5323 5328 5332 5335 5338 5341 5342 5345 5347 5347 5347 5346 5343 5339 5336 5333 5329 5325 5322
5165 5168 5173 5180 5186 5192 5199 5206 5218 5226 5234 5240 5246 5251 5255 5260 5265 5272 5279 5286 5292 5298 5305 5310 5315 5321 5326 5329 5332 5334 5336 5337 5338 5339 5338 5337 5335 5331 5328 5324 5320 5315 5311